STARLINK-32853, 62818

Orbit data source: Space-Track

STARLINK-32853, 62818 is a payload satellite owned by SpaceX/Seattle (US) in LEO that was launched on Fri, 24 Jan 2025 UTC via an FALCON 9 launch vehicle from the Air Force Western Test Range (AFWTR). Payload-class satellites include a variety of spacecraft equipped with specific instruments for various scientific and technological missions. These include communications satellites like Starlink; space stations such as the ISS; scientific satellites like the Hubble; Earth observation satellites from companies like Planet Labs, Umbra, and HawkEye 360; GPS; miniature CubeSats for education and research; and military/defense satellites.

Loading next visibility...
Identifier
62818, 2025-018N
Orbit
LEO
Last TLE update
21 hours ago
Origin
Manufacturer
SpaceX/Seattle
Mission
Operational Commercial Communications
Bus & Motor
STARLINK V2M, Unknown motor
Mass
730 kg wet, ~700 kg dry
Launch date (UTC)
2025-01-24 (6 months ago)
Launch vehicle
FALCON 9
Launch site
Air Force Western Test Range (AFWTR)
Object type
Payload
Rocket body
Debris
Shape & HBR
Box + 2 Pan, 14.5 m
Radar Cross Section
33.884 m², Large (>1 m²)

Expand to show TLE details & history

TLE from 21 hours ago
0 STARLINK-32853
1 62818U 25018N   25199.61116228  .00027849  00000-0  94925-3 0  9996
2 62818  53.1586 316.6116 0001296 100.3378 259.7769 15.30187520 28242
Epoch: 2025-07-18T14:40Z
TLE epoch observation values (Epoch: 2025-07-18T14:40:04.421Z)
Latitude
0.00001°
Longitude
159.93305°
Altitude
476.31 km
Speed
7.629 km/s
True Right ascension
21h 06m 26s
True Declination
0° 00' 00"
Sunlit
Object was in full shadow at epoch
Visualization orbit readout
Latitude
48.99163°
Longitude
-145.10484°
Altitude
479.954 km
Speed
7.632 km/s
Apparent Right ascension
08h 20m 36s
Apparent Declination
52° 32' 19"
Sunlit
Object is in daylight
Visualization observer readout
Local Sidereal Time
00:10:37
Azimuth
32.079° NE
Elevation
14.994°
Doppler factor
1
Orbital elements
Apogee altitude
476.397 km
Perigee altitude
474.621 km
Semi-major axis
6,853.646 km
Eccentricity
0.00013
Inclination
53.1586°
RAAN
316.6116°
Arg. of periapsis
100.3378°
True anomaly
259.76229°
Mean anomaly
259.7769°
Eccentric anomaly
259.76959°
Mean motion
3.82526 °/min
Orbital period
94.11 mins
BSTAR
0.00094925
Loading maneuver chart data...
Loading SW <> Apogee altitude chart data...
Loading historical data...
Loading historical data...
Loading historical data...
Loading historical data...
Loading historical data...
Loading historical data...
Loading historical data...
|